Date String (YYYY-MM-DD hh:mm:ss) UTC,Instrument flags,absolute air pressure of the measurement (hPa),sample flow rate (lpm),inlet stack bypass flow (lpm),air temperature of the measurement (°C),ambient temperature measured by the external sensor (°C),aerosol sample conditioner tube jacket temperature (°C),OPC LED temperature (°C),internal box temperature (°C),relative humidity of the measurement (%),span deviation,mass concentration of particles derived from Lorenz-Mie calculation of OPC scattering (μg/m³),mass concentration of particles derived from Lorenz-Mie calculation of OPC scattering (μg/m³),mass concentration of particles derived from Lorenz-Mie calculation of OPC scattering (μg/m³)
DateTimeUTC,F1_M11,P_M11,Q1_M11,Q2_M11,T1_M11,T2_M11,T3_M11,T4_M11,T5_M11,U1_M11,ZSPAN_M11,X2_M11,X0_M11,X1_M11
2024-02-10 11:00:00,SystemResetWarning,0825.1,5.00,000.00,018.3,017.7,000.0,026.9,020.0,21.0,0000.0,0003.40,0007.33,0002.96
2024-02-10 11:01:00,SystemResetWarning,0825.1,5.00,000.00,018.3,017.7,000.0,026.9,020.0,21.0,0000.0,0003.45,0007.38,0003.05
2024-02-10 11:02:00,SystemResetWarning,0825.1,5.01,000.00,018.2,017.7,000.0,026.9,020.0,21.0,0000.0,0003.49,0008.19,0003.14
2024-02-10 11:03:00,SystemResetWarning,0825.1,5.01,000.00,018.2,017.7,000.0,026.9,020.0,21.1,0000.0,0003.55,0008.46,0003.22
2024-02-10 11:04:00,SystemResetWarning,0825.1,5.01,000.00,018.2,017.7,000.0,026.9,020.0,21.1,0000.0,0003.59,0008.16,0003.28
2024-02-10 11:05:00,SystemResetWarning,0825.0,5.00,000.00,018.2,017.6,000.0,026.9,020.0,21.1,0000.0,0003.62,0008.16,0003.33
2024-02-10 11:06:00,SystemResetWarning,0825.0,5.00,000.00,018.2,017.6,000.0,026.9,020.0,21.1,0000.0,0003.65,0008.17,0003.38
2024-02-10 11:07:00,SystemResetWarning,0825.0,5.00,000.00,018.2,017.6,000.0,026.9,020.0,21.1,0000.0,0003.70,0008.21,0003.44
2024-02-10 11:08:00,SystemResetWarning,0824.9,5.00,000.00,018.2,017.6,000.0,026.9,020.0,21.1,0000.0,0003.72,0008.15,0003.50
2024-02-10 11:09:00,SystemResetWarning,0824.9,4.99,000.00,018.2,017.6,000.0,026.9,020.0,21.2,0000.0,0003.73,0008.05,0003.55
2024-02-10 11:10:00,SystemResetWarning,0824.9,4.99,000.00,018.2,017.6,000.0,026.9,020.0,21.1,0000.0,0003.75,0007.99,0003.59
2024-02-10 11:11:00,SystemResetWarning,0824.9,5.02,000.00,018.2,017.6,000.0,026.9,020.0,21.1,0000.0,0003.79,0008.25,0003.63
2024-02-10 11:12:00,SystemResetWarning,0824.9,5.00,000.00,018.2,017.6,000.0,026.9,020.0,21.1,0000.0,0003.83,0007.84,0003.66
2024-02-10 11:13:00,SystemResetWarning,0824.9,4.98,000.00,018.2,017.6,000.0,026.9,020.0,21.1,0000.0,0003.86,0006.84,0003.70
2024-02-10 11:14:00,SystemResetWarning,0824.9,5.00,000.00,018.2,017.6,000.0,026.9,020.0,21.2,0000.0,0003.90,0005.89,0003.72
2024-02-10 11:15:00,SystemResetWarning,0824.9,5.02,000.00,018.2,017.6,000.0,026.9,020.0,22.5,0000.0,0003.94,0005.96,0003.76
2024-02-10 11:16:00,SystemResetWarning,0824.9,4.99,000.00,018.2,017.6,000.0,026.9,020.0,22.9,0000.0,0003.97,0006.07,0003.79
2024-02-10 11:17:00,SystemResetWarning,0824.9,4.99,000.00,018.2,017.6,000.0,026.9,020.0,21.9,0000.0,0003.99,0006.16,0003.81
2024-02-10 11:18:00,SystemResetWarning,0824.9,5.01,000.00,018.2,017.6,000.0,026.9,020.0,21.6,0000.0,0004.00,0006.19,0003.83
2024-02-10 11:19:00,SystemResetWarning,0824.9,5.01,000.00,018.2,017.6,000.0,026.9,020.0,21.5,0000.0,0004.03,0006.27,0003.85
2024-02-10 11:20:00,SystemResetWarning,0824.9,5.00,000.00,018.2,017.6,000.0,026.9,020.0,21.4,0000.0,0004.06,0006.66,0003.87
2024-02-10 11:21:00,SystemResetWarning,0824.9,4.99,000.00,018.2,017.6,000.0,026.9,020.0,21.4,0000.0,0004.08,0007.26,0003.89
2024-02-10 11:22:00,SystemResetWarning,0824.9,4.99,000.00,018.2,017.6,000.0,026.9,020.0,21.5,0000.0,0004.09,0007.03,0003.90
2024-02-10 11:23:00,SystemResetWarning,0824.9,5.01,000.00,018.2,017.6,000.0,026.9,020.0,21.5,0000.0,0004.12,0006.94,0003.92
2024-02-10 11:24:00,SystemResetWarning,0824.9,5.01,000.00,018.2,017.6,000.0,026.9,020.0,21.5,0000.0,0004.15,0007.03,0003.93
2024-02-10 11:25:00,SystemResetWarning,0824.9,4.98,000.00,018.2,017.6,000.0,026.9,020.0,21.4,0000.0,0004.18,0007.33,0003.93
2024-02-10 11:26:00,SystemResetWarning,0824.9,5.01,000.00,018.3,018.0,000.0,027.0,020.3,21.4,0000.0,0004.19,0007.49,0003.93
2024-02-10 11:27:00,SystemResetWarning,0825.0,5.01,000.00,018.5,018.7,000.0,027.1,020.8,21.2,0000.0,0004.20,0008.16,0003.94
2024-02-10 11:28:00,SystemResetWarning,0825.0,5.00,000.00,018.7,019.2,000.0,027.1,021.0,21.0,0000.0,0004.22,0008.23,0003.96
2024-02-10 11:29:00,SystemResetWarning,0824.9,4.98,000.00,018.7,019.0,000.0,027.0,020.8,20.9,0000.0,0004.23,0008.42,0003.98
2024-02-10 11:30:00,SystemResetWarning,0825.0,5.00,000.00,018.7,018.8,000.0,027.0,020.6,20.9,0000.0,0004.22,0008.40,0003.97
2024-02-10 11:31:00,SystemResetWarning,0824.9,5.01,000.00,018.7,018.7,000.0,026.9,020.5,20.9,0000.0,0004.20,0008.32,0003.97
2024-02-10 11:32:00,SystemResetWarning,0824.9,5.00,000.00,018.7,018.5,000.0,026.9,020.5,20.7,0000.0,0004.20,0007.84,0003.98
2024-02-10 11:33:00,SystemResetWarning,0824.9,5.00,000.00,018.7,018.4,000.0,026.9,020.4,20.7,0000.0,0004.21,0007.78,0003.99
2024-02-10 11:34:00,SystemResetWarning,0824.9,5.00,000.00,018.6,018.3,000.0,027.0,020.4,20.7,0000.0,0004.20,0007.88,0003.99
2024-02-10 11:35:00,SystemResetWarning,0825.0,4.99,000.00,018.6,018.2,000.0,027.0,020.4,20.8,0000.0,0004.17,0008.13,0003.98
2024-02-10 11:36:00,SystemResetWarning,0825.0,5.00,000.00,018.6,018.2,000.0,027.0,020.3,20.7,0000.0,0004.11,0008.01,0003.96
2024-02-10 11:37:00,SystemResetWarning,0824.9,5.00,000.00,018.6,018.1,000.0,027.0,020.3,20.8,0000.0,0004.04,0007.84,0003.91
2024-02-10 11:38:00,SystemResetWarning,0824.9,4.99,000.00,018.6,018.1,000.0,027.0,020.3,20.9,0000.0,0003.97,0006.78,0003.85
2024-02-10 11:39:00,SystemResetWarning,0825.0,5.00,000.00,018.5,018.0,000.0,027.0,020.3,20.9,0000.0,0003.91,0006.58,0003.79
2024-02-10 11:40:00,SystemResetWarning,0825.0,5.01,000.00,018.5,018.0,000.0,027.0,020.2,21.0,0000.0,0003.87,0005.95,0003.75
2024-02-10 11:41:00,SystemResetWarning,0825.0,5.01,000.00,018.5,018.0,000.0,027.0,020.2,21.0,0000.0,0003.85,0005.98,0003.71
2024-02-10 11:42:00,SystemResetWarning,0825.0,5.01,000.00,018.5,017.9,000.0,026.9,020.2,21.0,0000.0,0003.85,0006.09,0003.70
2024-02-10 11:43:00,SystemResetWarning,0825.0,5.00,000.00,018.5,017.9,000.0,026.9,020.2,21.1,0000.0,0003.89,0006.23,0003.70
2024-02-10 11:44:00,SystemResetWarning,0825.0,4.99,000.00,018.4,017.9,000.0,026.9,020.1,21.2,0000.0,0003.88,0006.22,0003.70
2024-02-10 11:45:00,SystemResetWarning,0824.9,4.99,000.00,018.4,017.9,000.0,026.9,020.1,21.2,0000.0,0003.88,0005.96,0003.71
2024-02-10 11:46:00,SystemResetWarning,0824.9,5.01,000.00,018.4,017.8,000.0,026.9,020.0,21.3,0000.0,0003.89,0005.43,0003.72
2024-02-10 11:47:00,SystemResetWarning,0824.9,5.01,000.00,018.4,017.8,000.0,026.9,020.0,21.3,0000.0,0003.92,0005.36,0003.75
2024-02-10 11:48:00,SystemResetWarning,0824.9,5.00,000.00,018.3,017.8,000.0,026.9,020.0,21.3,0000.0,0004.01,0005.60,0003.82
2024-02-10 11:49:00,SystemResetWarning,0824.9,5.00,000.00,018.3,017.7,000.0,026.9,020.0,21.3,0000.0,0004.08,0005.69,0003.90
2024-02-10 11:50:00,SystemResetWarning,0824.9,4.99,000.00,018.3,017.7,000.0,027.0,020.0,21.4,0000.0,0004.14,0005.76,0003.97
2024-02-10 11:51:00,SystemResetWarning,0824.9,4.99,000.00,018.3,017.7,000.0,027.0,020.0,21.4,0000.0,0004.21,0005.91,0004.02
2024-02-10 11:52:00,SystemResetWarning,0824.9,5.01,000.00,018.3,017.6,000.0,027.0,020.0,21.4,0000.0,0004.24,0005.90,0004.06
2024-02-10 11:53:00,SystemResetWarning,0824.9,5.00,000.00,018.3,017.6,000.0,027.0,020.0,21.4,0000.0,0004.24,0005.77,0004.09
2024-02-10 11:54:00,SystemResetWarning,0825.0,4.99,000.00,018.3,017.6,000.0,027.0,020.0,21.3,0000.0,0004.22,0005.65,0004.08
2024-02-10 11:55:00,SystemResetWarning,0825.0,5.00,000.00,018.3,017.6,000.0,027.0,020.0,21.4,0000.0,0004.21,0005.65,0004.07
2024-02-10 11:56:00,SystemResetWarning,0824.9,5.00,000.00,018.3,017.5,000.0,027.0,020.0,21.4,0000.0,0004.21,0005.65,0004.07
2024-02-10 11:57:00,SystemResetWarning,0825.0,5.00,000.00,018.3,017.5,000.0,027.0,020.0,21.3,0000.0,0004.22,0005.64,0004.07
2024-02-10 11:58:00,SystemResetWarning,0824.9,5.00,000.00,018.3,017.5,000.0,027.0,020.0,21.4,0000.0,0004.21,0005.61,0004.07
2024-02-10 11:59:00,SystemResetWarning,0825.0,5.00,000.00,018.3,017.5,000.0,026.9,020.0,21.4,0000.0,0004.16,0005.46,0004.04
